TimeMDT,TemperatureF,Dew PointF,Humidity,Sea Level PressureIn,VisibilityMPH,Wind Direction,Wind SpeedMPH,Gust SpeedMPH,PrecipitationIn,Events,Conditions,WindDirDegrees,DateUTC
12:15 AM,62.6,30.2,30,30.07,10.0,ESE,4.6,-,N/A,,Clear,110,2012-10-04 06:15:00
12:35 AM,62.6,32.0,32,30.08,10.0,SE,4.6,-,N/A,,Clear,140,2012-10-04 06:35:00
12:55 AM,59.0,32.0,36,30.08,10.0,East,4.6,-,N/A,,Clear,90,2012-10-04 06:55:00
1:15 AM,62.6,30.2,30,30.08,10.0,ENE,5.8,-,N/A,,Clear,70,2012-10-04 07:15:00
1:35 AM,62.6,30.2,30,30.09,10.0,ENE,5.8,-,N/A,,Clear,60,2012-10-04 07:35:00
1:55 AM,66.2,28.4,24,30.09,10.0,NE,6.9,-,N/A,,Clear,40,2012-10-04 07:55:00
2:15 AM,64.4,26.6,24,30.09,10.0,NE,8.1,-,N/A,,Clear,40,2012-10-04 08:15:00
2:35 AM,68.0,28.4,23,30.09,10.0,NNE,9.2,-,N/A,,Clear,30,2012-10-04 08:35:00
2:55 AM,68.0,26.6,21,30.08,10.0,North,9.2,-,N/A,,Clear,10,2012-10-04 08:55:00
3:15 AM,68.0,26.6,21,30.08,10.0,NNE,9.2,-,N/A,,Clear,20,2012-10-04 09:15:00
3:35 AM,68.0,26.6,21,30.08,10.0,NNE,11.5,-,N/A,,Clear,30,2012-10-04 09:35:00
3:55 AM,68.0,26.6,21,30.08,10.0,NE,9.2,-,N/A,,Clear,50,2012-10-04 09:55:00
4:15 AM,64.4,28.4,26,30.10,10.0,SSE,9.2,-,N/A,,Clear,160,2012-10-04 10:15:00
4:35 AM,60.8,32.0,34,30.11,10.0,SE,8.1,-,N/A,,Clear,140,2012-10-04 10:35:00
4:55 AM,59.0,30.2,34,30.12,10.0,SE,8.1,-,N/A,,Clear,140,2012-10-04 10:55:00
5:15 AM,62.6,28.4,27,30.12,10.0,SSE,9.2,-,N/A,,Clear,150,2012-10-04 11:15:00
5:35 AM,59.0,28.4,31,30.12,10.0,SE,3.5,-,N/A,,Clear,130,2012-10-04 11:35:00
5:55 AM,57.2,28.4,33,30.13,10.0,SSE,4.6,-,N/A,,Clear,160,2012-10-04 11:55:00
6:15 AM,59.0,28.4,31,30.14,10.0,SSE,3.5,-,N/A,,Clear,150,2012-10-04 12:15:00
6:35 AM,59.0,28.4,31,30.14,10.0,Calm,Calm,-,N/A,,Clear,0,2012-10-04 12:35:00
6:55 AM,57.2,30.2,36,30.15,10.0,Calm,Calm,-,N/A,,Clear,0,2012-10-04 12:55:00
7:15 AM,55.4,32.0,41,30.17,10.0,Calm,Calm,-,N/A,,Clear,0,2012-10-04 13:15:00
7:35 AM,51.8,32.0,47,30.17,10.0,Calm,Calm,-,N/A,,Clear,0,2012-10-04 13:35:00
7:55 AM,55.4,32.0,41,30.18,10.0,East,4.6,-,N/A,,Clear,80,2012-10-04 13:55:00
8:15 AM,62.6,32.0,32,30.19,10.0,Calm,Calm,-,N/A,,Clear,0,2012-10-04 14:15:00
8:35 AM,66.2,32.0,28,30.19,10.0,South,5.8,-,N/A,,Clear,170,2012-10-04 14:35:00
8:55 AM,69.8,32.0,25,30.20,10.0,SSE,5.8,-,N/A,,Clear,150,2012-10-04 14:55:00
9:15 AM,71.6,32.0,23,30.20,10.0,South,5.8,-,N/A,,Clear,180,2012-10-04 15:15:00
9:35 AM,73.4,32.0,22,30.21,10.0,South,9.2,-,N/A,,Clear,180,2012-10-04 15:35:00
9:55 AM,75.2,32.0,21,30.21,10.0,SSE,9.2,-,N/A,,Clear,160,2012-10-04 15:55:00
10:15 AM,77.0,32.0,19,30.21,10.0,South,9.2,-,N/A,,Clear,190,2012-10-04 16:15:00
10:35 AM,78.8,32.0,18,30.21,10.0,South,9.2,-,N/A,,Clear,190,2012-10-04 16:35:00
10:55 AM,80.6,30.2,16,30.21,10.0,South,9.2,-,N/A,,Clear,170,2012-10-04 16:55:00
11:15 AM,82.4,32.0,16,30.21,10.0,South,9.2,-,N/A,,Clear,190,2012-10-04 17:15:00
11:35 AM,82.4,32.0,16,30.21,10.0,SSW,6.9,-,N/A,,Clear,200,2012-10-04 17:35:00
11:55 AM,84.2,32.0,15,30.20,10.0,SSW,9.2,-,N/A,,Clear,210,2012-10-04 17:55:00
12:35 PM,84.2,28.4,13,30.20,10.0,SSW,8.1,-,N/A,,Clear,210,2012-10-04 18:35:00
12:55 PM,86.0,28.4,12,30.19,10.0,SSW,6.9,-,N/A,,Clear,200,2012-10-04 18:55:00
1:15 PM,86.0,28.4,12,30.17,10.0,SW,3.5,-,N/A,,Clear,230,2012-10-04 19:15:00
1:35 PM,86.0,28.4,12,30.16,10.0,SE,8.1,-,N/A,,Clear,140,2012-10-04 19:35:00
1:55 PM,86.0,26.6,12,30.15,10.0,South,8.1,-,N/A,,Clear,170,2012-10-04 19:55:00
2:15 PM,87.8,28.4,12,30.14,10.0,SSW,11.5,20.7,N/A,,Clear,200,2012-10-04 20:15:00
2:35 PM,89.6,28.4,11,30.14,10.0,SSW,6.9,16.1,N/A,,Clear,210,2012-10-04 20:35:00
2:55 PM,89.6,28.4,11,30.12,10.0,South,10.4,19.6,N/A,,Clear,170,2012-10-04 20:55:00
3:15 PM,89.6,28.4,11,30.12,10.0,SSW,8.1,20.7,N/A,,Clear,210,2012-10-04 21:15:00
3:35 PM,89.6,28.4,11,30.11,10.0,SSE,8.1,18.4,N/A,,Clear,150,2012-10-04 21:35:00
3:55 PM,89.6,28.4,11,30.10,10.0,South,19.6,28.8,N/A,,Clear,180,2012-10-04 21:55:00
4:15 PM,89.6,26.6,10,30.10,10.0,South,12.7,29.9,N/A,,Clear,190,2012-10-04 22:15:00
4:35 PM,89.6,26.6,10,30.08,10.0,SSW,23.0,28.8,N/A,,Clear,200,2012-10-04 22:35:00
4:55 PM,89.6,26.6,10,30.09,10.0,SW,16.1,21.9,N/A,,Clear,220,2012-10-04 22:55:00
5:15 PM,89.6,26.6,10,30.08,10.0,South,16.1,20.7,N/A,,Clear,170,2012-10-04 23:15:00
5:35 PM,87.8,26.6,11,30.08,10.0,South,15.0,20.7,N/A,,Clear,190,2012-10-04 23:35:00
5:55 PM,86.0,26.6,12,30.08,10.0,South,13.8,19.6,N/A,,Clear,190,2012-10-04 23:55:00
6:15 PM,86.0,26.6,12,30.08,10.0,SW,12.7,-,N/A,,Clear,220,2012-10-05 00:15:00
6:35 PM,82.4,26.6,13,30.09,10.0,SW,9.2,-,N/A,,Clear,220,2012-10-05 00:35:00
6:55 PM,80.6,28.4,15,30.09,10.0,SSW,8.1,-,N/A,,Clear,210,2012-10-05 00:55:00
7:15 PM,73.4,28.4,19,30.10,10.0,South,5.8,-,N/A,,Clear,170,2012-10-05 01:15:00
7:35 PM,71.6,28.4,20,30.10,10.0,SSE,8.1,-,N/A,,Clear,150,2012-10-05 01:35:00
7:55 PM,71.6,28.4,20,30.10,10.0,SSE,10.4,-,N/A,,Clear,150,2012-10-05 01:55:00
8:15 PM,73.4,28.4,19,30.11,10.0,SSE,9.2,-,N/A,,Clear,160,2012-10-05 02:15:00
8:35 PM,73.4,28.4,19,30.11,10.0,SSE,10.4,-,N/A,,Clear,160,2012-10-05 02:35:00
8:55 PM,71.6,30.2,22,30.11,10.0,SSE,11.5,-,N/A,,Clear,150,2012-10-05 02:55:00
9:15 PM,71.6,30.2,22,30.11,10.0,SSE,11.5,-,N/A,,Clear,150,2012-10-05 03:15:00
9:35 PM,73.4,30.2,20,30.11,10.0,South,6.9,-,N/A,,Clear,170,2012-10-05 03:35:00
9:55 PM,71.6,30.2,22,30.11,10.0,South,8.1,-,N/A,,Clear,170,2012-10-05 03:55:00
10:15 PM,68.0,30.2,24,30.11,10.0,SSE,10.4,-,N/A,,Clear,160,2012-10-05 04:15:00
10:35 PM,71.6,30.2,22,30.11,10.0,South,10.4,-,N/A,,Clear,170,2012-10-05 04:35:00
10:55 PM,69.8,30.2,23,30.12,10.0,South,10.4,-,N/A,,Clear,170,2012-10-05 04:55:00
11:15 PM,69.8,30.2,23,30.11,10.0,South,9.2,-,N/A,,Clear,170,2012-10-05 05:15:00
11:35 PM,68.0,30.2,24,30.11,10.0,South,8.1,-,N/A,,Clear,170,2012-10-05 05:35:00
11:55 PM,68.0,30.2,24,30.11,10.0,South,5.8,-,N/A,,Clear,180,2012-10-05 05:55:00